[[{"header":{"parameterUnit":"m.s-1","parameterCategory":1,"la1":30.2991,"la2":30.254,"lo1":-89.0895,"lo2":-89.0444,"dy":0.0017,"dx":0.0017,"nx":28,"ny":28,"refTime":"2025-01-16T09:00:00:Z","depth":0,"parameterNumber":2,"parameterNumberName":"U-component_of_WINDS"},"data":[0,0,0,0,0,0,0,0,0,0,0,0,0,0,0,0,0,0,0,0,0,0,0,0,0,0,0,0,0,0,0,0,0,0,0,0,0,0,0,0,0,0,0,0,0,0,0,0,0,0,0,0,0,0,0,0,0,0,-1.271,-1.2709,0,-1.2648,-1.2647,-1.2646,-1.2629,-1.2629,-1.263,-1.263,-1.2564,-1.2562,-1.256,0,0,0,0,0,0,0,0,0,0,0,0,0,-1.281,-1.2808,-1.271,-1.2709,-1.2708,-1.2648,-1.2647,-1.2646,-1.2629,-1.2629,-1.263,-1.263,-1.2565,-1.2562,-1.256,0,0,0,0,0,0,0,0,0,0,0,0,0,-1.2759,-1.2807,-1.271,-1.2692,-1.269,-1.2648,-1.2647,-1.2646,-1.2629,-1.2629,-1.263,-1.263,-1.2566,-1.2563,-1.256,-1.253,0,0,-1.255,-1.2549,0,0,0,0,0,0,0,0,-1.2762,-1.2755,-1.2696,-1.2693,-1.2691,-1.2647,-1.2658,-1.2607,-1.2629,-1.2652,-1.263,-1.2631,-1.2591,-1.2586,-1.2573,-1.2527,-1.2524,-1.255,-1.2548,-1.2547,-1.2546,0,0,0,0,0,0,0,-1.2765,-1.2758,-1.2685,-1.2695,-1.2692,-1.2686,-1.268,-1.2648,-1.2619,-1.265,-1.2649,-1.2642,-1.259,-1.2576,-1.2571,-1.2523,-1.255,-1.2547,-1.2545,-1.2544,-1.2447,-1.2446,0,0,0,0,0,0,-1.2772,-1.2761,-1.2687,-1.2683,-1.2728,-1.2684,-1.2677,-1.266,-1.262,-1.2614,-1.2641,-1.2641,-1.2581,-1.2575,-1.2569,-1.253,-1.2547,-1.2544,-1.2542,-1.2448,-1.2447,-1.2446,0,0,0,0,0,0,-1.2774,-1.2766,-1.269,-1.2722,-1.2711,-1.2682,-1.2663,-1.2659,-1.2645,-1.2613,-1.2607,-1.2633,-1.2581,-1.2573,-1.2539,-1.2528,-1.2542,-1.2539,-1.2449,-1.2447,-1.2446,-1.2453,0,0,0,0,0,0,-1.2777,-1.2767,-1.2756,-1.2721,-1.271,-1.2662,-1.2663,-1.2657,-1.264,-1.2639,-1.2603,-1.2598,-1.2581,-1.2544,-1.2536,-1.2524,-1.2537,-1.2449,-1.2448,-1.2447,-1.2454,-1.2452,-1.2451,0,0,0,0,0,-1.2781,-1.276,-1.2756,-1.2747,-1.2696,-1.2661,-1.2655,-1.2636,-1.2639,-1.2627,-1.2606,-1.2599,-1.253,-1.2541,-1.2532,-1.2518,-1.245,-1.2448,-1.2447,-1.2454,-1.2453,-1.2451,0,0,0,0,0,0,-1.2794,-1.2755,-1.275,-1.2717,-1.2693,-1.2659,-1.2643,-1.2635,-1.2609,-1.2609,-1.2587,-1.2579,-1.2546,-1.2529,-1.2541,-1.2486,-1.249,-1.2486,-1.2499,-1.2497,-1.2495,-1.25,-1.2534,0,0,0,0,0,-1.2793,-1.2769,-1.2736,-1.2711,-1.2699,-1.2673,-1.2658,-1.2645,-1.2619,-1.2608,-1.2585,-1.2558,-1.2531,-1.2513,-1.2486,-1.2451,-1.2442,-1.2437,-1.2436,-1.2435,-1.2432,-1.2411,-1.2407,-1.2441,-1.2441,-1.2441,0,0,-1.2791,-1.2767,-1.2753,-1.2713,-1.2692,-1.2667,-1.2665,-1.2638,-1.2619,-1.2604,-1.257,-1.2552,-1.2521,-1.2486,-1.247,-1.2471,-1.2421,-1.2433,-1.2432,-1.243,-1.2409,-1.2406,-1.2403,-1.244,-1.244,-1.244,0,0,-1.2773,-1.2753,-1.2729,-1.2709,-1.2678,-1.2661,-1.2655,-1.2621,-1.2609,-1.2575,-1.2563,-1.2539,-1.2492,-1.247,-1.2452,-1.2425,-1.2417,-1.2417,-1.241,-1.2389,-1.2387,-1.2384,-1.2373,-1.2369,-1.2414,-1.2414,-1.2414,0,-1.2774,-1.2736,-1.2718,-1.2691,-1.2673,-1.2659,-1.2633,-1.2614,-1.2576,-1.2563,-1.2565,-1.2505,-1.2483,-1.2442,-1.2435,-1.2422,-1.2414,-1.2421,-1.2389,-1.2386,-1.2383,-1.2372,-1.2368,-1.2414,-1.2414,-1.2414,-1.2414,0,-1.2738,-1.2712,-1.2696,-1.2659,-1.2639,-1.2614,-1.259,-1.2572,-1.2561,-1.2543,-1.2508,-1.2481,-1.2448,-1.2437,-1.2426,-1.2394,-1.2395,-1.2393,-1.2397,-1.2381,-1.237,-1.2366,-1.2414,-1.2414,-1.2414,-1.2414,0,0,-1.2728,-1.268,-1.2674,-1.2657,-1.2621,-1.26,-1.2573,-1.254,-1.2524,-1.2498,-1.2474,-1.2434,-1.2431,-1.2411,-1.2398,-1.238,-1.2358,-1.238,-1.2379,-1.2376,-1.2319,-1.232,-1.2316,-1.2353,-1.2352,-1.2351,-1.2321,0,-1.2705,-1.2656,-1.2638,-1.2598,-1.2573,-1.2558,-1.2534,-1.2509,-1.2491,-1.2466,-1.2446,-1.2418,-1.2417,-1.2405,-1.2387,-1.2365,-1.2346,-1.2367,-1.2328,-1.2327,-1.2336,-1.231,-1.2312,-1.2285,-1.2317,-1.2316,-1.2316,0,-1.2672,-1.2645,-1.2603,-1.2568,-1.2557,-1.2536,-1.2504,-1.2481,-1.2451,-1.2439,-1.2417,-1.2404,-1.2373,-1.2379,-1.2336,-1.235,-1.2333,-1.232,-1.2318,-1.2313,-1.232,-1.2303,-1.2276,-1.2271,-1.2309,-1.231,-1.231,0,-1.2667,-1.262,-1.2588,-1.2574,-1.2534,-1.2519,-1.2501,-1.2472,-1.2453,-1.2425,-1.2412,-1.238,-1.2363,-1.2338,-1.2317,-1.2323,-1.2275,-1.2279,-1.2263,-1.2263,-1.2253,-1.2253,-1.2221,-1.2244,-1.2244,-1.2244,-1.2244,0,-1.2643,-1.2617,-1.2585,-1.2566,-1.2535,-1.2514,-1.2485,-1.2466,-1.244,-1.2415,-1.2401,-1.2378,-1.2352,-1.2325,-1.2308,-1.2273,-1.2266,-1.2254,-1.225,-1.2255,-1.2256,-1.2243,-1.2244,-1.2243,-1.2243,-1.2243,-1.2243,0,-1.2632,-1.261,-1.2574,-1.2538,-1.2529,-1.2508,-1.2477,-1.2457,-1.2438,-1.2407,-1.2398,-1.2369,-1.2336,-1.2313,-1.2271,-1.2259,-1.2222,-1.2218,-1.2232,-1.223,-1.2214,-1.2216,-1.2171,-1.2163,-1.2193,-1.2193,-1.2192,0,-1.2618,-1.2598,-1.256,-1.2542,-1.2525,-1.2497,-1.2478,-1.2455,-1.2435,-1.2399,-1.2383,-1.2349,-1.2321,-1.227,-1.2244,-1.2211,-1.2206,-1.2192,-1.2201,-1.2206,-1.2204,-1.2205,-1.2202,-1.2191,-1.219,-1.219,-1.219,0,-1.2595,-1.2584,-1.2557,-1.2525,-1.2502,-1.2476,-1.245,-1.2436,-1.2409,-1.2387,-1.2354,-1.2332,-1.2289,-1.2255,-1.222,-1.22,-1.219,-1.2188,-1.2182,-1.2187,-1.2195,-1.2189,-1.2227,-1.2189,-1.2189,-1.2189,-1.2189,-1.2189,-1.2581,-1.2561,-1.2531,-1.2501,-1.2478,-1.2454,-1.2432,-1.2411,-1.2383,-1.2346,-1.2334,-1.2299,-1.2268,-1.222,-1.22,-1.2171,-1.2172,-1.2164,-1.2162,-1.216,-1.2159,-1.22,-1.2165,-1.2165,-1.2165,-1.2165,-1.2165,0,-1.2556,-1.2535,-1.2507,-1.2471,-1.2446,-1.2439,-1.2409,-1.2389,-1.2359,-1.2331,-1.2303,-1.2264,-1.2231,-1.2202,-1.2168,-1.215,-1.2144,-1.2142,-1.2142,-1.2137,-1.2162,-1.2169,-1.2147,-1.2147,-1.2147,-1.2147,-1.2147,-1.2147,-1.254,-1.2506,-1.2492,-1.2446,-1.2425,-1.2391,-1.2374,-1.2351,-1.2328,-1.2285,-1.2258,-1.224,-1.2211,-1.2174,-1.2142,-1.2135,-1.2122,-1.212,-1.2111,-1.2134,-1.2136,-1.2138,-1.2145,-1.2118,-1.2118,-1.2089,-1.2089,-1.2089]},{"header":{"parameterUnit":"m.s-1","parameterCategory":1,"la1":30.2991,"la2":30.254,"lo1":-89.0895,"lo2":-89.0444,"dy":0.0017,"dx":0.0017,"nx":28,"ny":28,"refTime":"2025-01-16T09:00:00:Z","depth":0,"parameterNumber":3,"parameterNumberName":"V-component_of_WINDS"},"data":[0,0,0,0,0,0,0,0,0,0,0,0,0,0,0,0,0,0,0,0,0,0,0,0,0,0,0,0,0,0,0,0,0,0,0,0,0,0,0,0,0,0,0,0,0,0,0,0,0,0,0,0,0,0,0,0,0,0,3.9343,3.9344,0,3.9456,3.9457,3.9458,3.9446,3.9444,3.9442,3.944,3.9555,3.956,3.9565,0,0,0,0,0,0,0,0,0,0,0,0,0,3.9116,3.912,3.9343,3.9344,3.9346,3.9456,3.9457,3.9459,3.9446,3.9444,3.9441,3.9439,3.9554,3.9559,3.9565,0,0,0,0,0,0,0,0,0,0,0,0,0,3.922,3.9122,3.9343,3.9353,3.9355,3.9455,3.9457,3.9459,3.9446,3.9444,3.9441,3.9438,3.9552,3.9559,3.9566,3.9664,0,0,3.9587,3.9591,0,0,0,0,0,0,0,0,3.9214,3.9229,3.935,3.9352,3.9354,3.9434,3.9419,3.9528,3.9447,3.9411,3.944,3.9437,3.9517,3.9527,3.9554,3.9669,3.9674,3.9588,3.9592,3.9595,3.9597,0,0,0,0,0,0,0,3.9207,3.9224,3.9388,3.9351,3.9354,3.9351,3.9363,3.944,3.9478,3.9414,3.9414,3.9427,3.9518,3.9547,3.9557,3.9676,3.9588,3.9594,3.9599,3.9601,3.988,3.9883,0,0,0,0,0,0,3.9198,3.9218,3.9384,3.9391,3.9276,3.9358,3.9371,3.9411,3.9477,3.9485,3.9429,3.9426,3.9536,3.9548,3.956,3.9682,3.9595,3.9602,3.9606,3.9877,3.988,3.9884,0,0,0,0,0,0,3.9193,3.9213,3.9379,3.9304,3.9325,3.9364,3.941,3.9415,3.9444,3.9489,3.9495,3.9453,3.9535,3.955,3.9639,3.9686,3.9605,3.9612,3.9873,3.9878,3.9882,3.9924,0,0,0,0,0,0,3.9186,3.9211,3.9249,3.9305,3.9329,3.9456,3.9413,3.9419,3.9457,3.9453,3.9512,3.9519,3.9534,3.9628,3.9646,3.9694,3.9617,3.9869,3.9875,3.988,3.9919,3.993,3.9939,0,0,0,0,0,3.9178,3.9255,3.925,3.9271,3.9377,3.9459,3.9473,3.9488,3.946,3.9499,3.9528,3.9517,3.9677,3.9637,3.9657,3.9708,3.9866,3.9873,3.988,3.9914,3.9927,3.9939,0,0,0,0,0,0,3.9202,3.9263,3.9258,3.9356,3.9402,3.9456,3.9505,3.9501,3.9556,3.9551,3.9568,3.9581,3.9671,3.9698,3.9652,3.9808,3.9768,3.9779,3.9787,3.98,3.981,3.9803,3.9623,0,0,0,0,0,3.9219,3.928,3.9329,3.9411,3.9434,3.9466,3.9502,3.951,3.9559,3.9578,3.9613,3.9661,3.9722,3.9762,3.9821,3.9922,3.9935,3.9966,3.9977,3.9985,3.9995,4.0053,4.0068,3.9907,3.9907,3.9907,0,0,3.9254,3.9295,3.9332,3.9417,3.9454,3.9517,3.9483,3.9551,3.9598,3.9588,3.9675,3.9702,3.9756,3.9852,3.9896,3.9878,4.0042,3.9994,4.0,4.0006,4.0062,4.0077,4.009,3.9911,3.9911,3.991,0,0,3.9351,3.9387,3.946,3.9498,3.9555,3.9575,3.9593,3.9648,3.9666,3.9753,3.9748,3.9804,3.9908,3.9948,3.9982,4.0095,4.0089,4.0114,4.0167,4.0223,4.0236,4.0248,4.029,4.0305,4.0123,4.0123,4.0123,0,3.9388,3.9483,3.9498,3.9568,3.9606,3.96,3.9675,3.9711,3.9783,3.981,3.9788,3.9921,3.9956,4.0063,4.009,4.0117,4.0139,4.0108,4.0233,4.0245,4.0256,4.0297,4.0312,4.0126,4.0126,4.0126,4.0125,0,3.9527,3.9593,3.9645,3.9717,3.9761,3.9832,3.9858,3.99,3.9905,3.9928,4.0017,4.006,4.0128,4.0153,4.0157,4.0261,4.0248,4.0229,4.019,4.0274,4.0313,4.0328,4.013,4.0129,4.0128,4.0128,0,0,3.9643,3.9722,3.9742,3.9775,3.9837,3.9889,3.9961,4.0028,4.0065,4.0115,4.0177,4.0266,4.025,4.0288,4.0297,4.0346,4.0436,4.0321,4.0323,4.0343,4.0555,4.0571,4.0588,4.0431,4.0434,4.0436,4.0551,0,3.9748,3.9876,3.9892,4.0005,4.0068,4.0064,4.0126,4.0172,4.0195,4.0252,4.0277,4.0341,4.0314,4.0337,4.0385,4.0415,4.0479,4.0406,4.049,4.0493,4.0479,4.0608,4.0625,4.0732,4.0566,4.0569,4.0571,0,3.9888,3.9944,4.0064,4.012,4.0147,4.0203,4.0267,4.0321,4.0373,4.0386,4.043,4.0432,4.0507,4.0463,4.0568,4.0518,4.0553,4.0573,4.0577,4.0588,4.0539,4.0625,4.0766,4.0783,4.0594,4.0592,4.0591,0,3.9964,4.0069,4.0155,4.0184,4.025,4.029,4.0319,4.0368,4.0408,4.0464,4.049,4.0553,4.0589,4.0637,4.0657,4.0623,4.0762,4.0719,4.0776,4.0776,4.0808,4.0806,4.0959,4.0826,4.0825,4.0825,4.0825,0,4.0082,4.0156,4.0191,4.0244,4.0328,4.0345,4.0427,4.0455,4.0499,4.0558,4.0556,4.0612,4.0634,4.0693,4.0708,4.0794,4.0809,4.0823,4.0827,4.0825,4.0824,4.085,4.0844,4.0829,4.0829,4.0828,4.0827,0,4.0182,4.0208,4.0302,4.0357,4.0373,4.0433,4.048,4.0532,4.0555,4.063,4.0648,4.0684,4.0754,4.0778,4.0861,4.0872,4.0973,4.0968,4.0956,4.0957,4.1014,4.101,4.1192,4.1218,4.1065,4.1066,4.1067,0,4.0257,4.0314,4.0376,4.0416,4.0447,4.0511,4.0552,4.0571,4.0614,4.0678,4.0723,4.0792,4.0849,4.096,4.0994,4.1058,4.1058,4.1117,4.1068,4.1065,4.1062,4.106,4.1067,4.1127,4.1129,4.113,4.1131,0,4.0387,4.0397,4.0457,4.0522,4.0572,4.0623,4.0673,4.0706,4.0732,4.0781,4.0852,4.0896,4.0983,4.1053,4.1119,4.1149,4.1146,4.1146,4.1163,4.1163,4.1155,4.1163,4.0984,4.1142,4.1141,4.114,4.114,4.1139,4.0479,4.0531,4.0583,4.065,4.069,4.0737,4.0789,4.0819,4.0879,4.0952,4.0959,4.1037,4.1088,4.1177,4.121,4.1272,4.1256,4.128,4.1287,4.1293,4.1299,4.1143,4.1284,4.1283,4.1283,4.1283,4.1283,0,4.0612,4.0645,4.0707,4.0778,4.0831,4.0822,4.0877,4.0923,4.0991,4.1039,4.1096,4.1179,4.1247,4.1286,4.1354,4.1395,4.1396,4.1413,4.1411,4.1419,4.1308,4.1288,4.1412,4.1412,4.1412,4.1412,4.1412,4.1412,4.0687,4.0776,4.0792,4.09,4.0933,4.101,4.1043,4.1087,4.1126,4.1219,4.1276,4.1301,4.1346,4.1417,4.1479,4.1489,4.1515,4.1535,4.1543,4.144,4.1426,4.1414,4.1395,4.154,4.154,4.165,4.1651,4.1651]}]]